FW5436 Weather Reports


time (UTC)temp
C
wind
direction
speed
KPH
gust
KPH
rain 1hr
cm
rain 24hr
cm
rain mn
cm
humidity
%
barometer
mb
20260508135550 10 68 6.4 17.7 0.00 0.64 1.17 97 994.5
20260508135040 10 45 6.4 17.7 0.00 0.64 1.17 97 994.5
20260508134529 10 45 8.0 17.7 0.00 0.64 1.17 97 994.5
20260508134020 10 68 6.4 20.9 0.00 0.64 1.17 97 994.4
20260508133509 10 68 6.4 20.9 0.00 0.64 1.17 97 994.6
20260508132449 10 45 6.4 20.9 0.00 0.64 1.17 98 994.3
20260508131939 10 45 8.0 17.7 0.00 0.64 1.17 98 994.1
20260508131430 10 45 6.4 17.7 0.00 0.64 1.17 98 994.2
20260508130409 10 68 6.4 22.5 0.03 0.64 1.17 98 994.0
20260508125903 10 135 6.4 20.9 0.03 0.64 1.17 98 994.2
20260508125349 10 338 8.0 22.5 0.03 0.64 1.17 98 994.2
20260508124839 10 90 6.4 22.5 0.03 0.64 1.17 98 993.9
20260508124328 10 90 8.0 20.9 0.03 0.64 1.17 98 993.9
20260508123818 10 338 8.0 17.7 0.03 0.64 1.17 98 993.9
20260508123309 10 45 9.7 17.7 0.03 0.64 1.17 98 994.0
20260508121737 10 45 6.4 17.7 0.05 0.64 1.17 98 993.5
20260508121228 10 23 11.3 20.9 0.05 0.64 1.17 98 993.5
20260508120718 10 45 6.4 20.9 0.05 0.64 1.17 98 993.4
20260508120207 10 0 6.4 17.7 0.03 0.61 1.14 98 993.6
20260508115147 10 90 4.8 17.7 0.03 0.61 1.14 98 993.5
20260508114637 10 23 6.4 20.9 0.03 0.61 1.14 98 993.3
20260508114127 10 45 8.0 20.9 0.03 0.61 1.14 98 993.4
20260508113616 10 45 8.0 17.7 0.03 0.61 1.14 98 993.4
20260508113107 10 45 9.7 17.7 0.05 0.61 1.14 98 993.4
20260508112556 10 0 9.7 17.7 0.03 0.56 1.12 98 993.4
20260508112046 10 45 8.0 17.7 0.03 0.56 1.12 98 993.2
20260508111536 10 68 6.4 20.9 0.03 0.56 1.12 98 993.3
20260508111026 10 68 4.8 20.9 0.03 0.56 1.12 98 993.3
20260508110515 10 113 6.4 17.7 0.03 0.56 1.12 98 993.2
20260508110006 10 45 6.4 17.7 0.03 0.56 1.12 98 993.1
20260508104945 10 270 4.8 14.5 0.03 0.56 1.12 98 992.9
20260508104435 10 45 6.4 14.5 0.05 0.56 1.12 98 992.9
20260508103414 10 68 3.2 14.5 0.10 0.56 1.12 98 992.8
20260508102905 10 68 6.4 17.7 0.05 0.53 1.09 98 992.6
20260508102354 10 45 6.4 17.7 0.05 0.53 1.09 98 992.9
20260508101843 10 45 6.4 17.7 0.10 0.53 1.09 98 992.9
20260508101334 10 68 3.2 14.5 0.13 0.53 1.09 98 992.8
20260508100315 10 0 3.2 11.3 0.15 0.53 1.09 98 992.6
20260508095803 10 90 6.4 12.9 0.18 0.53 1.09 98 992.7
20260508095254 10 90 3.2 12.9 0.18 0.53 1.09 98 992.6
20260508094743 10 90 3.2 12.9 0.18 0.53 1.09 98 992.6
20260508094233 10 68 6.4 17.7 0.15 0.51 1.04 98 992.8
20260508093723 10 68 3.2 17.7 0.15 0.51 1.04 98 992.7
20260508092705 10 68 4.8 12.9 0.13 0.48 1.02 97 992.6
20260508092153 10 45 4.8 12.9 0.10 0.46 0.99 97 992.8
20260508091648 10 180 3.2 17.7 0.05 0.43 0.97 97 992.7
20260508091132 10 45 4.8 17.7 0.05 0.43 0.97 97 992.7
20260508090112 10 45 3.2 11.3 0.00 0.36 0.89 97 992.7
20260508085603 10 0 3.2 11.3 0.00 0.36 0.89 97 992.7
20260508085052 10 45 4.8 12.9 0.00 0.36 0.89 97 992.8
20260508084541 10 68 4.8 17.7 0.00 0.36 0.89 97 992.8
20260508084032 10 23 3.2 17.7 0.03 0.36 0.89 97 992.8
20260508083523 10 68 4.8 14.5 0.03 0.36 0.89 97 992.7
20260508083011 10 68 4.8 14.5 0.05 0.36 0.89 97 992.8
20260508081951 10 68 6.4 17.7 0.13 0.36 0.89 97 992.9
20260508081440 10 23 6.4 17.7 0.18 0.36 0.89 97 992.8
20260508080930 10 68 4.8 17.7 0.20 0.36 0.89 97 993.0
20260508080420 10 0 6.4 20.9 0.20 0.36 0.89 97 992.9
20260508075911 10 45 9.7 20.9 0.20 0.36 0.89 97 993.0
20260508075400 10 113 4.8 12.9 0.20 0.36 0.89 97 992.9
20260508074850 10 90 6.4 11.3 0.20 0.36 0.89 97 992.9
20260508073829 10 45 3.2 12.9 0.20 0.33 0.86 98 992.8
20260508073320 10 90 4.8 12.9 0.23 0.30 0.86 97 992.9
20260508072810 10 45 3.2 12.9 0.28 0.30 0.84 97 992.9
20260508072259 11 90 3.2 17.7 0.23 0.28 0.81 97 992.7
20260508071749 11 180 6.4 17.7 0.20 0.20 0.76 97 992.7
20260508070729 11 45 3.2 17.7 0.15 0.15 0.69 97 992.9
20260508070219 11 0 6.4 17.7 0.15 0.15 0.69 97 993.1
20260508065708 11 113 6.4 17.7 0.15 0.15 0.69 97 992.9
20260508065203 11 23 6.4 12.9 0.15 0.15 0.69 97 993.1
20260508064649 11 0 3.2 12.9 0.15 0.15 0.69 97 993.0
20260508063628 11 315 3.2 11.3 0.13 0.13 0.66 97 993.2
20260508063118 11 45 4.8 17.7 0.05 0.05 0.61 97 993.3
20260508062608 11 0 4.8 17.7 0.03 0.03 0.56 97 993.5
20260508062059 11 338 3.2 17.7 0.00 0.00 0.53 98 993.5
20260508061547 11 23 4.8 17.7 0.00 0.00 0.53 98 993.7
20260508060527 11 113 3.2 11.3 0.00 0.00 0.53 98 993.4
20260508060017 11 68 4.8 17.7 0.00 0.00 0.53 98 993.6
20260508055507 11 0 8.0 17.7 0.00 0.00 0.53 98 993.5
20260508053936 12 23 6.4 11.3 0.00 0.00 0.53 98 993.4
20260508053426 12 45 4.8 0.0 0.00 0.00 0.53 98 993.2
20260508053209 12 45 4.8 0.0 0.00 0.00 0.53 98 993.2
20260508052631 12 0 3.2 9.7 0.48 0.64 0.53 98 993.2
20260508052121 12 23 1.6 9.7 0.48 0.61 0.51 98 993.3
20260508051100 13 45 1.6 6.4 0.38 0.51 0.43 98 993.3
20260508050550 13 68 1.6 6.4 0.36 0.48 0.38 98 993.5
20260508050041 13 45 1.6 6.4 0.33 0.46 0.36 98 993.6
20260508045530 13 23 1.6 6.4 0.30 0.43 0.33 98 993.8
20260508044519 13 90 3.2 6.4 0.18 0.30 0.23 98 993.9
20260508044000 13 45 1.6 3.2 0.15 0.28 0.18 98 993.8
20260508043449 13 45 0.0 3.2 0.10 0.20 0.13 98 994.1
20260508042939 13 45 1.6 6.4 0.05 0.18 0.10 98 994.1
20260508041919 13 45 1.6 3.2 0.00 0.13 0.03 98 994.0
20260508041408 13 68 1.6 3.2 0.00 0.13 0.03 98 994.1
20260508040350 13 68 3.2 6.4 0.03 0.13 0.03 98 994.0
20260508035838 13 68 0.0 3.2 0.03 0.13 0.03 98 994.0
20260508034826 13 45 0.0 3.2 0.03 0.13 0.03 98 993.8
20260508034308 13 45 0.0 3.2 0.03 0.13 0.03 97 993.6
20260508033759 13 45 0.0 3.2 0.03 0.13 0.03 97 993.5
20260508033249 13 45 0.0 3.2 0.03 0.13 0.03 97 993.5
20260508032737 13 68 0.0 3.2 0.03 0.13 0.03 97 993.5
20260508032227 13 248 0.0 3.2 0.03 0.13 0.03 97 994.0
20260508031207 13 68 0.0 6.4 0.03 0.13 0.03 97 993.8
20260508030148 13 45 1.6 3.2 0.00 0.10 0.00 97 993.9
20260508025636 13 45 1.6 6.4 0.00 0.10 1.75 97 994.0
20260508025126 13 23 1.6 6.4 0.00 0.10 1.75 97 994.1
20260508024616 13 68 1.6 6.4 0.00 0.10 1.75 97 994.2
20260508024106 13 90 3.2 6.4 0.03 0.10 1.75 97 994.5
20260508022536 13 68 3.2 11.3 0.05 0.10 1.75 97 994.9
20260508022025 13 68 4.8 11.3 0.05 0.10 1.75 97 995.1
20260508021516 13 68 4.8 12.9 0.05 0.10 1.75 97 994.8
20260508021006 13 45 6.4 12.9 0.10 0.10 1.75 97 995.2
20260508020456 13 68 3.2 6.4 0.10 0.10 1.75 97 995.1
20260508015945 13 23 3.2 9.7 0.10 0.10 1.75 97 995.3
20260508014924 13 90 4.8 9.7 0.10 0.10 1.75 96 995.2
20260508014415 13 45 3.2 9.7 0.10 0.10 1.75 96 995.3
20260508013904 13 68 3.2 9.7 0.05 0.05 1.70 96 995.5
20260508013354 13 90 3.2 11.3 0.03 0.03 1.68 96 995.5
20260508012844 13 68 6.4 11.3 0.03 0.03 1.68 96 995.6
20260508012333 13 68 3.2 11.3 0.03 0.03 1.68 96 995.6
20260508011824 13 68 3.2 11.3 0.03 0.03 1.68 96 995.7
20260508011313 13 45 3.2 11.3 0.03 0.03 1.68 96 995.6
20260508010804 13 45 3.2 9.7 0.00 0.00 1.65 95 995.9
20260508010254 13 45 1.6 11.3 0.00 0.00 1.65 95 995.6
20260508005743 13 68 3.2 11.3 0.00 0.00 1.65 95 995.7
20260508005233 13 23 4.8 11.3 0.00 0.00 1.65 95 995.8
20260508004723 13 68 3.2 11.3 0.00 0.00 1.65 95 995.9
20260508004213 13 23 6.4 11.3 0.00 0.00 1.65 94 996.1
20260508003703 13 45 3.2 14.5 0.00 0.00 1.65 94 996.0
20260508003152 13 45 4.8 14.5 0.00 0.00 1.65 94 996.1
20260508002642 13 90 6.4 14.5 0.00 0.00 1.65 94 996.1
20260508002132 14 45 6.4 12.9 0.00 0.00 1.65 93 996.2
20260508001111 14 45 6.4 12.9 0.00 0.00 1.65 93 996.5
20260508000618 14 113 8.0 14.5 0.00 0.00 1.65 93 996.5
20260508000053 14 90 6.4 22.5 0.00 0.00 1.65 93 996.4
20260507235544 14 68 11.3 22.5 0.00 0.00 1.65 93 996.7
20260507235031 14 68 6.4 17.7 0.00 0.00 1.65 93 996.6
20260507234520 14 0 6.4 14.5 0.00 0.00 1.65 93 996.8
20260507234011 15 23 4.8 14.5 0.00 0.00 1.65 93 997.0
20260507232951 15 23 6.4 14.5 0.00 0.00 1.65 94 996.9
20260507232441 15 45 6.4 11.3 0.00 0.00 1.65 94 996.6
20260507231930 15 23 3.2 11.3 0.00 0.00 1.65 94 996.5
20260507231420 15 68 4.8 17.7 0.00 0.00 1.65 93 996.4
20260507230910 15 45 3.2 17.7 0.00 0.00 1.65 93 996.5
20260507230359 15 45 3.2 12.9 0.00 0.00 1.65 93 996.2
20260507225850 15 68 6.4 12.9 0.00 0.00 1.65 92 996.1
20260507225340 15 68 3.2 12.9 0.00 0.00 1.65 92 995.8
20260507224829 15 68 3.2 9.7 0.00 0.00 1.65 91 995.8
20260507224319 15 0 3.2 9.7 0.00 0.00 1.65 91 996.0
20260507223810 15 68 3.2 6.4 0.00 0.00 1.65 90 995.8
20260507223259 16 45 3.2 6.4 0.00 0.00 1.65 91 995.7
20260507222749 16 90 1.6 3.2 0.00 0.00 1.65 91 995.8
20260507222239 16 68 1.6 6.4 0.00 0.00 1.65 90 995.6
20260507221728 16 45 3.2 6.4 0.00 0.00 1.65 90 995.8
20260507221218 16 45 3.2 3.2 0.00 0.00 1.65 90 995.9
20260507220708 16 45 1.6 3.2 0.00 0.00 1.65 90 995.8
20260507215648 16 45 0.0 3.2 0.00 0.00 1.65 89 996.0
20260507215138 16 113 0.0 0.0 0.00 0.00 1.65 89 995.7
20260507214627 16 45 0.0 6.4 0.00 0.00 1.65 89 995.6
20260507214117 16 45 0.0 6.4 0.00 0.00 1.65 89 995.4
20260507213608 16 45 0.0 3.2 0.00 0.00 1.65 89 995.4
20260507213057 16 45 1.6 3.2 0.00 0.00 1.65 89 995.8
20260507212547 16 45 1.6 3.2 0.00 0.00 1.65 88 995.5
20260507212037 16 0 0.0 3.2 0.00 0.00 1.65 88 995.3
20260507211527 16 68 0.0 3.2 0.00 0.00 1.65 87 995.2
20260507211017 16 0 0.0 0.0 0.00 0.00 1.65 87 995.2
20260507210512 16 0 0.0 0.0 0.00 0.00 1.65 87 995.5
20260507205956 16 0 0.0 3.2 0.00 0.00 1.65 86 995.6
20260507205447 16 0 0.0 3.2 0.00 0.00 1.65 86 995.6
20260507204936 16 68 1.6 3.2 0.00 0.00 1.65 86 995.6
20260507203916 16 68 3.2 6.4 0.00 0.00 1.65 86 995.6
20260507203405 16 293 3.2 6.4 0.00 0.00 1.65 86 995.8
20260507202349 16 45 3.2 6.4 0.00 0.00 1.65 86 996.3
20260507201326 16 90 3.2 9.7 0.00 0.00 1.65 86 996.3
20260507200815 16 45 3.2 9.7 0.00 0.00 1.65 86 996.2
20260507195754 16 45 1.6 9.7 0.00 0.00 1.65 86 996.2
20260507195254 16 113 4.8 9.7 0.00 0.00 1.65 86 996.1
20260507194224 17 45 3.2 14.5 0.00 0.00 1.65 85 996.2
20260507193714 16 68 3.2 17.7 0.00 0.00 1.65 85 996.1
20260507193204 16 68 8.0 17.7 0.00 0.00 1.65 86 996.1
20260507192653 16 68 6.4 11.3 0.00 0.00 1.65 86 996.0
20260507192144 16 45 3.2 11.3 0.00 0.00 1.65 86 995.7
20260507191635 16 68 3.2 12.9 0.00 0.00 1.65 86 995.6
20260507191124 16 113 6.4 12.9 0.00 0.00 1.65 86 995.5
20260507190117 16 23 3.2 11.3 0.00 0.00 1.65 86 995.3
20260507185554 16 270 3.2 12.9 0.00 0.00 1.65 86 995.5
20260507185043 17 0 4.8 12.9 0.00 0.00 1.65 86 996.0
20260507184532 17 90 4.8 17.7 0.00 0.00 1.65 85 995.9
20260507183002 17 68 4.8 9.7 0.00 0.00 1.65 86 995.6
20260507182452 16 45 3.2 12.9 0.00 0.00 1.65 86 995.6
20260507181939 16 68 3.2 12.9 0.00 0.00 1.65 86 995.8
20260507181430 16 23 4.8 17.7 0.00 0.00 1.65 86 996.1
20260507180411 16 68 3.2 12.9 0.00 0.00 1.65 87 996.1
20260507175902 16 158 4.8 12.9 0.00 0.00 1.65 87 996.1
20260507175352 16 23 6.4 14.5 0.00 0.00 1.65 87 996.3
20260507174846 16 23 6.4 14.5 0.00 0.00 1.65 87 996.4
20260507174331 16 68 8.0 17.7 0.00 0.00 1.65 87 996.5
20260507173826 16 68 4.8 17.7 0.00 0.00 1.65 87 996.2
20260507172801 16 135 6.4 17.7 0.00 0.00 1.65 87 995.9
20260507172250 16 338 3.2 17.7 0.00 0.00 1.65 87 995.6
20260507171740 16 158 4.8 17.7 0.00 0.00 1.65 87 995.8
20260507171230 16 180 6.4 17.7 0.00 0.00 1.65 87 995.5
20260507170209 16 68 3.2 14.5 0.00 0.00 1.65 88 995.5
20260507165700 16 23 4.8 14.5 0.00 0.00 1.65 88 995.5
20260507165149 16 338 8.0 17.7 0.00 0.00 1.65 88 995.4
20260507164639 16 23 6.4 17.7 0.00 0.00 1.65 88 995.3
20260507164132 16 90 6.4 14.5 0.00 0.00 1.65 88 995.4
20260507163619 16 68 6.4 17.7 0.00 0.00 1.65 88 995.7
20260507163110 16 45 4.8 20.9 0.00 0.00 1.65 88 995.7
20260507162559 16 68 6.4 20.9 0.00 0.00 1.65 88 995.7
20260507162049 16 45 6.4 17.7 0.00 0.00 1.65 88 995.7
20260507161539 16 68 8.0 12.9 0.00 0.00 1.65 89 995.7
20260507160007 16 68 6.4 17.7 0.00 0.00 1.65 89 996.0
20260507155458 16 23 4.8 17.7 0.00 0.00 1.65 89 995.9
20260507154437 16 23 6.4 11.3 0.00 0.00 1.65 89 996.3
20260507153927 16 90 3.2 12.9 0.00 0.00 1.65 89 996.1
20260507153417 16 68 4.8 12.9 0.00 0.00 1.65 89 996.4
20260507152907 16 45 3.2 12.9 0.00 0.00 1.65 89 996.5
20260507151847 16 68 3.2 17.7 0.00 0.00 1.65 90 997.0
20260507151337 16 68 8.0 17.7 0.00 0.00 1.65 90 997.1
20260507150826 16 68 1.6 11.3 0.00 0.00 1.65 90 996.9
20260507145256 16 68 6.4 14.5 0.00 0.00 1.65 90 997.6
20260507144236 16 45 4.8 14.5 0.00 0.00 1.65 91 997.0
20260507143726 16 45 6.4 14.5 0.00 0.00 1.65 91 996.8
20260507143215 16 68 3.2 12.9 0.00 0.00 1.65 91 996.5
20260507142705 16 135 3.2 14.5 0.00 0.00 1.65 92 996.3
20260507141644 16 338 3.2 9.7 0.00 0.00 1.65 92 996.2
20260507141135 15 113 3.2 9.7 0.00 0.00 1.65 92 996.6
20260507140626 15 68 3.2 11.3 0.00 0.00 1.65 93 996.5
20260507140114 15 68 3.2 11.3 0.00 0.00 1.65 93 996.4